| time (UTC) | temp F | wind direction | speed MPH | gust MPH | rain 1hr in | rain 24hr in | rain mn in | humidity % | barometer mb |
| 20260510034540 | 53 | 106 | 0.0 | 3.0 | 0.00 | 0.05 | 0.05 | 67 | 1020.2 |
| 20260510034027 | 53 | 0 | 0.0 | 3.0 | 0.00 | 0.05 | 0.05 | 64 | 1020.3 |
| 20260510033524 | 54 | 0 | 0.0 | 6.0 | 0.00 | 0.05 | 0.05 | 64 | 1020.1 |
| 20260510033037 | 54 | 44 | 2.0 | 6.0 | 0.00 | 0.05 | 0.05 | 63 | 1020.0 |
| 20260510032523 | 55 | 40 | 3.0 | 8.0 | 0.00 | 0.05 | 0.05 | 62 | 1019.9 |
| 20260510032023 | 55 | 29 | 3.0 | 8.0 | 0.00 | 0.05 | 0.05 | 62 | 1019.8 |
| 20260510031537 | 55 | 41 | 4.0 | 8.0 | 0.00 | 0.05 | 0.05 | 62 | 1019.8 |
| 20260510031024 | 55 | 25 | 2.0 | 9.0 | 0.00 | 0.05 | 0.05 | 62 | 1019.8 |
| 20260510030527 | 55 | 78 | 2.0 | 9.0 | 0.00 | 0.05 | 0.05 | 61 | 1019.7 |
| 20260510030037 | 55 | 30 | 2.0 | 7.0 | 0.00 | 0.05 | 0.05 | 62 | 1019.7 |
| 20260510025523 | 55 | 66 | 3.0 | 7.0 | 0.00 | 0.06 | 0.05 | 62 | 1019.5 |
| 20260510025026 | 55 | 63 | 3.0 | 8.0 | 0.00 | 0.06 | 0.05 | 62 | 1019.4 |
| 20260510024547 | 55 | 30 | 3.0 | 8.0 | 0.00 | 0.06 | 0.05 | 62 | 1019.4 |
| 20260510024026 | 56 | 49 | 4.0 | 9.0 | 0.00 | 0.06 | 0.05 | 61 | 1019.3 |
| 20260510023523 | 56 | 35 | 5.0 | 9.0 | 0.00 | 0.06 | 0.05 | 61 | 1019.2 |
| 20260510023037 | 56 | 54 | 4.0 | 9.0 | 0.00 | 0.06 | 0.05 | 61 | 1019.2 |
| 20260510022526 | 56 | 72 | 4.0 | 9.0 | 0.00 | 0.06 | 0.05 | 61 | 1019.0 |
| 20260510022023 | 57 | 35 | 4.0 | 13.0 | 0.00 | 0.06 | 0.05 | 61 | 1018.9 |
| 20260510021537 | 57 | 31 | 5.0 | 13.0 | 0.00 | 0.06 | 0.05 | 60 | 1019.0 |
| 20260510021022 | 57 | 27 | 6.0 | 12.0 | 0.00 | 0.06 | 0.05 | 59 | 1018.9 |
| 20260510020522 | 58 | 33 | 6.0 | 12.0 | 0.00 | 0.06 | 0.05 | 58 | 1018.8 |
| 20260510020049 | 59 | 37 | 5.0 | 10.0 | 0.00 | 0.06 | 0.05 | 57 | 1018.7 |
| 20260510015523 | 59 | 52 | 6.0 | 10.0 | 0.00 | 0.06 | 0.05 | 57 | 1018.6 |
| 20260510015023 | 59 | 11 | 5.0 | 9.0 | 0.00 | 0.06 | 0.05 | 56 | 1018.5 |
| 20260510014538 | 60 | 46 | 4.0 | 12.0 | 0.00 | 0.06 | 0.05 | 54 | 1018.5 |
| 20260510014023 | 61 | 25 | 2.0 | 12.0 | 0.00 | 0.06 | 0.05 | 53 | 1018.5 |
| 20260510013523 | 61 | 91 | 7.0 | 11.0 | 0.00 | 0.06 | 0.05 | 52 | 1018.5 |
| 20260510013046 | 62 | 32 | 6.0 | 11.0 | 0.00 | 0.06 | 0.05 | 49 | 1018.4 |
| 20260510012523 | 63 | 15 | 4.0 | 12.0 | 0.00 | 0.06 | 0.05 | 42 | 1018.2 |
| 20260510012023 | 63 | 328 | 5.0 | 12.0 | 0.00 | 0.06 | 0.05 | 40 | 1018.0 |
| 20260510011539 | 63 | 15 | 6.0 | 12.0 | 0.00 | 0.06 | 0.05 | 41 | 1018.2 |
| 20260510011022 | 63 | 360 | 3.0 | 12.0 | 0.00 | 0.06 | 0.05 | 44 | 1018.2 |
| 20260510010522 | 63 | 11 | 3.0 | 12.0 | 0.00 | 0.06 | 0.05 | 48 | 1018.0 |
| 20260510010055 | 64 | 63 | 6.0 | 14.0 | 0.00 | 0.06 | 0.05 | 47 | 1018.0 |
| 20260510005527 | 64 | 1 | 5.0 | 14.0 | 0.00 | 0.06 | 0.05 | 42 | 1018.1 |
| 20260510005022 | 64 | 40 | 5.0 | 12.0 | 0.00 | 0.06 | 0.05 | 44 | 1018.0 |
| 20260510004536 | 64 | 22 | 7.0 | 13.0 | 0.00 | 0.06 | 0.05 | 44 | 1017.8 |
| 20260510004027 | 64 | 340 | 6.0 | 14.0 | 0.00 | 0.06 | 0.05 | 41 | 1017.9 |
| 20260510003525 | 63 | 336 | 7.0 | 14.0 | 0.00 | 0.06 | 0.05 | 41 | 1017.9 |
| 20260510003038 | 64 | 307 | 6.0 | 16.0 | 0.00 | 0.06 | 0.05 | 41 | 1017.8 |
| 20260510002523 | 64 | 341 | 8.0 | 16.0 | 0.00 | 0.06 | 0.05 | 42 | 1017.9 |
| 20260510002023 | 64 | 359 | 7.0 | 16.0 | 0.00 | 0.06 | 0.05 | 41 | 1017.7 |
| 20260510001538 | 63 | 348 | 6.0 | 15.0 | 0.00 | 0.06 | 0.05 | 44 | 1017.8 |
| 20260510001025 | 62 | 348 | 6.0 | 15.0 | 0.00 | 0.06 | 0.05 | 44 | 1017.7 |
| 20260510000528 | 63 | 352 | 7.0 | 13.0 | 0.00 | 0.06 | 0.05 | 43 | 1017.7 |
| 20260510000041 | 62 | 336 | 7.0 | 13.0 | 0.00 | 0.06 | 0.05 | 44 | 1017.7 |
| 20260509235524 | 62 | 335 | 7.0 | 20.0 | 0.00 | 0.06 | 0.05 | 45 | 1017.7 |
| 20260509235023 | 62 | 324 | 9.0 | 20.0 | 0.00 | 0.06 | 0.05 | 44 | 1017.6 |
| 20260509234559 | 62 | 302 | 5.0 | 19.0 | 0.00 | 0.06 | 0.05 | 45 | 1017.6 |
| 20260509234027 | 62 | 12 | 6.0 | 19.0 | 0.00 | 0.06 | 0.05 | 44 | 1017.6 |
| 20260509233523 | 62 | 350 | 7.0 | 18.0 | 0.00 | 0.06 | 0.05 | 45 | 1017.4 |
| 20260509233040 | 62 | 37 | 8.0 | 18.0 | 0.00 | 0.06 | 0.05 | 44 | 1017.6 |
| 20260509232526 | 63 | 334 | 6.0 | 17.0 | 0.00 | 0.06 | 0.05 | 46 | 1017.6 |
| 20260509232023 | 63 | 360 | 8.0 | 17.0 | 0.00 | 0.06 | 0.05 | 44 | 1017.5 |
| 20260509231537 | 64 | 353 | 6.0 | 17.0 | 0.00 | 0.06 | 0.05 | 43 | 1017.6 |
| 20260509231023 | 64 | 319 | 7.0 | 16.0 | 0.00 | 0.06 | 0.05 | 44 | 1017.6 |
| 20260509230528 | 64 | 3 | 8.0 | 16.0 | 0.00 | 0.06 | 0.05 | 43 | 1017.5 |
| 20260509230045 | 64 | 340 | 6.0 | 17.0 | 0.00 | 0.06 | 0.05 | 44 | 1017.6 |
| 20260509225523 | 64 | 354 | 7.0 | 17.0 | 0.00 | 0.06 | 0.05 | 45 | 1017.5 |
| 20260509225026 | 63 | 25 | 5.0 | 14.0 | 0.00 | 0.06 | 0.05 | 48 | 1017.6 |
| 20260509224536 | 63 | 10 | 5.0 | 13.0 | 0.00 | 0.06 | 0.05 | 46 | 1017.6 |
| 20260509224023 | 63 | 42 | 5.0 | 16.0 | 0.00 | 0.06 | 0.05 | 47 | 1017.5 |
| 20260509223527 | 63 | 27 | 6.0 | 18.0 | 0.00 | 0.06 | 0.05 | 47 | 1017.2 |
| 20260509223036 | 62 | 33 | 8.0 | 18.0 | 0.00 | 0.06 | 0.05 | 47 | 1017.3 |
| 20260509222527 | 62 | 32 | 9.0 | 17.0 | 0.00 | 0.06 | 0.05 | 46 | 1017.3 |
| 20260509222023 | 62 | 72 | 9.0 | 17.0 | 0.00 | 0.06 | 0.05 | 46 | 1017.2 |
| 20260509221600 | 62 | 84 | 10.0 | 18.0 | 0.00 | 0.06 | 0.05 | 45 | 1017.1 |
| 20260509221024 | 62 | 29 | 10.0 | 18.0 | 0.00 | 0.06 | 0.05 | 47 | 1017.1 |
| 20260509220523 | 62 | 30 | 8.0 | 18.0 | 0.00 | 0.06 | 0.05 | 46 | 1017.2 |
| 20260509220037 | 63 | 26 | 8.0 | 16.0 | 0.00 | 0.06 | 0.05 | 43 | 1017.2 |
| 20260509215524 | 63 | 1 | 7.0 | 15.0 | 0.00 | 0.06 | 0.05 | 43 | 1017.3 |
| 20260509215023 | 63 | 51 | 8.0 | 15.0 | 0.00 | 0.06 | 0.05 | 42 | 1017.1 |
| 20260509214539 | 63 | 35 | 7.0 | 15.0 | 0.00 | 0.06 | 0.05 | 41 | 1017.1 |
| 20260509214022 | 63 | 11 | 7.0 | 15.0 | 0.00 | 0.06 | 0.05 | 40 | 1017.1 |
| 20260509213526 | 63 | 355 | 5.0 | 15.0 | 0.00 | 0.06 | 0.05 | 42 | 1017.2 |
| 20260509213040 | 62 | 20 | 7.0 | 14.0 | 0.00 | 0.06 | 0.05 | 41 | 1017.2 |
| 20260509212528 | 62 | 1 | 8.0 | 16.0 | 0.00 | 0.06 | 0.05 | 45 | 1017.2 |
| 20260509212023 | 62 | 16 | 8.0 | 17.0 | 0.00 | 0.06 | 0.05 | 44 | 1017.1 |
| 20260509211537 | 62 | 66 | 9.0 | 17.0 | 0.00 | 0.06 | 0.05 | 47 | 1017.1 |
| 20260509211023 | 61 | 44 | 7.0 | 19.0 | 0.00 | 0.06 | 0.05 | 47 | 1017.2 |
| 20260509210523 | 61 | 31 | 10.0 | 19.0 | 0.00 | 0.06 | 0.05 | 47 | 1017.4 |
| 20260509210037 | 62 | 25 | 12.0 | 19.0 | 0.00 | 0.06 | 0.05 | 46 | 1017.3 |
| 20260509205522 | 65 | 28 | 7.0 | 15.0 | 0.00 | 0.06 | 0.05 | 43 | 1017.3 |
| 20260509205022 | 65 | 356 | 6.0 | 15.0 | 0.00 | 0.06 | 0.05 | 35 | 1017.3 |
| 20260509204536 | 65 | 343 | 6.0 | 17.0 | 0.00 | 0.06 | 0.05 | 37 | 1017.2 |
| 20260509204023 | 65 | 342 | 8.0 | 17.0 | 0.00 | 0.06 | 0.05 | 35 | 1017.1 |
| 20260509203525 | 66 | 278 | 5.0 | 12.0 | 0.00 | 0.06 | 0.05 | 34 | 1017.1 |
| 20260509203041 | 65 | 342 | 4.0 | 15.0 | 0.00 | 0.06 | 0.05 | 39 | 1017.0 |
| 20260509202525 | 65 | 289 | 6.0 | 15.0 | 0.00 | 0.06 | 0.05 | 38 | 1017.1 |
| 20260509202023 | 65 | 47 | 7.0 | 12.0 | 0.00 | 0.06 | 0.05 | 35 | 1017.0 |
| 20260509201541 | 65 | 38 | 6.0 | 13.0 | 0.00 | 0.06 | 0.05 | 35 | 1017.0 |
| 20260509201027 | 65 | 318 | 4.0 | 13.0 | 0.00 | 0.06 | 0.05 | 36 | 1017.0 |
| 20260509200525 | 65 | 347 | 7.0 | 14.0 | 0.00 | 0.06 | 0.05 | 35 | 1017.0 |
| 20260509200042 | 65 | 319 | 6.0 | 14.0 | 0.00 | 0.06 | 0.05 | 35 | 1017.0 |
| 20260509195523 | 65 | 321 | 7.0 | 17.0 | 0.00 | 0.06 | 0.05 | 38 | 1017.0 |
| 20260509195026 | 64 | 6 | 8.0 | 17.0 | 0.00 | 0.06 | 0.05 | 35 | 1016.9 |
| 20260509194543 | 64 | 359 | 7.0 | 16.0 | 0.00 | 0.06 | 0.05 | 38 | 1016.8 |
| 20260509194023 | 64 | 26 | 9.0 | 16.0 | 0.00 | 0.06 | 0.05 | 40 | 1016.8 |
| 20260509193526 | 64 | 334 | 8.0 | 16.0 | 0.00 | 0.06 | 0.05 | 36 | 1016.6 |
| 20260509193044 | 65 | 24 | 8.0 | 16.0 | 0.00 | 0.06 | 0.05 | 36 | 1016.5 |
| 20260509192524 | 65 | 359 | 8.0 | 16.0 | 0.00 | 0.06 | 0.05 | 35 | 1016.4 |
| 20260509192036 | 65 | 8 | 8.0 | 15.0 | 0.00 | 0.06 | 0.05 | 33 | 1016.5 |
| 20260509191543 | 65 | 311 | 4.0 | 15.0 | 0.00 | 0.06 | 0.05 | 34 | 1016.4 |
| 20260509191028 | 65 | 331 | 6.0 | 16.0 | 0.00 | 0.06 | 0.05 | 32 | 1016.4 |
| 20260509190530 | 64 | 293 | 7.0 | 16.0 | 0.00 | 0.06 | 0.05 | 31 | 1016.4 |
| 20260509190047 | 64 | 305 | 5.0 | 15.0 | 0.00 | 0.06 | 0.05 | 35 | 1016.4 |
| 20260509185525 | 64 | 280 | 7.0 | 16.0 | 0.00 | 0.06 | 0.05 | 36 | 1016.6 |
| 20260509185023 | 64 | 360 | 7.0 | 17.0 | 0.00 | 0.06 | 0.05 | 37 | 1016.7 |
| 20260509184540 | 64 | 357 | 7.0 | 17.0 | 0.00 | 0.06 | 0.05 | 36 | 1016.6 |
| 20260509184022 | 63 | 46 | 6.0 | 12.0 | 0.00 | 0.06 | 0.05 | 35 | 1016.6 |
| 20260509183524 | 63 | 328 | 5.0 | 11.0 | 0.00 | 0.06 | 0.05 | 35 | 1016.7 |
| 20260509183041 | 63 | 359 | 5.0 | 17.0 | 0.00 | 0.06 | 0.05 | 34 | 1016.7 |
| 20260509182523 | 63 | 345 | 6.0 | 17.0 | 0.00 | 0.06 | 0.05 | 38 | 1016.7 |
| 20260509182022 | 63 | 359 | 5.0 | 13.0 | 0.00 | 0.06 | 0.05 | 37 | 1016.7 |
| 20260509181536 | 63 | 321 | 4.0 | 13.0 | 0.00 | 0.06 | 0.05 | 38 | 1016.8 |
| 20260509181026 | 63 | 2 | 5.0 | 12.0 | 0.00 | 0.06 | 0.05 | 43 | 1016.7 |
| 20260509180524 | 62 | 358 | 4.0 | 12.0 | 0.00 | 0.06 | 0.05 | 42 | 1016.8 |
| 20260509180037 | 62 | 328 | 6.0 | 13.0 | 0.00 | 0.06 | 0.05 | 46 | 1016.8 |
| 20260509175522 | 61 | 324 | 5.0 | 13.0 | 0.00 | 0.06 | 0.05 | 49 | 1017.0 |
| 20260509175027 | 60 | 15 | 5.0 | 11.0 | 0.00 | 0.06 | 0.05 | 49 | 1017.0 |
| 20260509174537 | 59 | 338 | 4.0 | 11.0 | 0.00 | 0.06 | 0.05 | 48 | 1017.1 |
| 20260509174023 | 59 | 332 | 4.0 | 11.0 | 0.00 | 0.06 | 0.05 | 48 | 1017.1 |
| 20260509173523 | 59 | 337 | 6.0 | 10.0 | 0.00 | 0.06 | 0.05 | 49 | 1017.1 |
| 20260509173051 | 59 | 318 | 4.0 | 10.0 | 0.00 | 0.06 | 0.05 | 47 | 1017.0 |
| 20260509172523 | 60 | 323 | 2.0 | 11.0 | 0.00 | 0.06 | 0.05 | 48 | 1017.1 |
| 20260509172026 | 60 | 322 | 5.0 | 11.0 | 0.00 | 0.06 | 0.05 | 48 | 1017.0 |
| 20260509171546 | 59 | 349 | 6.0 | 11.0 | 0.00 | 0.06 | 0.05 | 48 | 1017.1 |
| 20260509171023 | 59 | 338 | 5.0 | 13.0 | 0.00 | 0.06 | 0.05 | 47 | 1017.1 |
| 20260509170523 | 59 | 345 | 6.0 | 14.0 | 0.00 | 0.06 | 0.05 | 47 | 1017.0 |
| 20260509170042 | 59 | 1 | 7.0 | 14.0 | 0.00 | 0.06 | 0.05 | 43 | 1017.0 |
| 20260509165526 | 59 | 328 | 6.0 | 12.0 | 0.00 | 0.06 | 0.05 | 44 | 1017.0 |
| 20260509165023 | 59 | 359 | 7.0 | 14.0 | 0.00 | 0.06 | 0.05 | 44 | 1017.0 |
| 20260509164546 | 59 | 328 | 7.0 | 14.0 | 0.00 | 0.06 | 0.05 | 45 | 1016.9 |
| 20260509164028 | 61 | 348 | 6.0 | 13.0 | 0.00 | 0.06 | 0.05 | 46 | 1016.7 |
| 20260509163524 | 61 | 339 | 5.0 | 15.0 | 0.00 | 0.06 | 0.05 | 50 | 1016.7 |
| 20260509163049 | 60 | 1 | 8.0 | 15.0 | 0.00 | 0.06 | 0.05 | 50 | 1016.9 |
| 20260509162524 | 60 | 297 | 6.0 | 14.0 | 0.00 | 0.06 | 0.05 | 50 | 1016.6 |
| 20260509162024 | 60 | 34 | 6.0 | 14.0 | 0.00 | 0.06 | 0.05 | 48 | 1016.6 |
| 20260509161537 | 59 | 326 | 5.0 | 14.0 | 0.00 | 0.06 | 0.05 | 54 | 1016.5 |
| 20260509161023 | 59 | 342 | 7.0 | 13.0 | 0.00 | 0.06 | 0.05 | 55 | 1016.4 |
| 20260509160523 | 58 | 307 | 3.0 | 8.0 | 0.00 | 0.06 | 0.05 | 60 | 1016.3 |
| 20260509160037 | 56 | 347 | 2.0 | 7.0 | 0.00 | 0.06 | 0.05 | 65 | 1016.4 |
| 20260509155522 | 55 | 334 | 1.0 | 4.0 | 0.00 | 0.06 | 0.05 | 68 | 1016.4 |
| 20260509155026 | 54 | 342 | 1.0 | 3.0 | 0.00 | 0.06 | 0.05 | 72 | 1016.4 |
| 20260509154537 | 54 | 0 | 0.0 | 5.0 | 0.00 | 0.06 | 0.05 | 71 | 1016.4 |
| 20260509154026 | 54 | 336 | 1.0 | 5.0 | 0.00 | 0.06 | 0.05 | 72 | 1016.6 |
| 20260509153528 | 54 | 347 | 2.0 | 4.0 | 0.00 | 0.06 | 0.05 | 71 | 1016.8 |
| 20260509153038 | 54 | 342 | 0.0 | 4.0 | 0.00 | 0.06 | 0.05 | 70 | 1016.9 |
| 20260509152526 | 54 | 211 | 1.0 | 4.0 | 0.00 | 0.06 | 0.05 | 69 | 1017.0 |
| 20260509152026 | 55 | 247 | 1.0 | 3.0 | 0.00 | 0.06 | 0.05 | 70 | 1017.0 |
| 20260509151537 | 55 | 286 | 1.0 | 9.0 | 0.00 | 0.06 | 0.05 | 70 | 1016.9 |
| 20260509151026 | 55 | 329 | 2.0 | 9.0 | 0.00 | 0.06 | 0.05 | 67 | 1016.7 |
| 20260509150528 | 56 | 350 | 4.0 | 12.0 | 0.00 | 0.06 | 0.05 | 69 | 1016.4 |
| 20260509150037 | 56 | 311 | 5.0 | 12.0 | 0.00 | 0.06 | 0.05 | 67 | 1016.4 |
| 20260509145529 | 55 | 343 | 6.0 | 12.0 | 0.00 | 0.06 | 0.05 | 67 | 1016.3 |
| 20260509145027 | 55 | 350 | 5.0 | 11.0 | 0.00 | 0.06 | 0.05 | 68 | 1016.2 |
| 20260509144544 | 55 | 311 | 4.0 | 12.0 | 0.00 | 0.06 | 0.05 | 69 | 1016.1 |
| 20260509144026 | 55 | 333 | 5.0 | 12.0 | 0.00 | 0.06 | 0.05 | 69 | 1016.1 |
| 20260509143526 | 56 | 341 | 5.0 | 12.0 | 0.00 | 0.06 | 0.05 | 69 | 1016.0 |
| 20260509143037 | 56 | 337 | 4.0 | 12.0 | 0.00 | 0.06 | 0.05 | 69 | 1015.9 |
| 20260509142525 | 55 | 281 | 5.0 | 14.0 | 0.00 | 0.06 | 0.05 | 72 | 1015.9 |
| 20260509142027 | 54 | 342 | 4.0 | 14.0 | 0.00 | 0.06 | 0.05 | 72 | 1016.0 |
| 20260509141544 | 54 | 304 | 5.0 | 14.0 | 0.00 | 0.06 | 0.05 | 71 | 1015.8 |
| 20260509141027 | 54 | 327 | 5.0 | 11.0 | 0.00 | 0.06 | 0.05 | 72 | 1015.9 |
| 20260509140526 | 53 | 323 | 5.0 | 14.0 | 0.00 | 0.06 | 0.05 | 72 | 1015.8 |
| 20260509140042 | 53 | 298 | 5.0 | 14.0 | 0.00 | 0.06 | 0.05 | 73 | 1015.8 |
| 20260509135526 | 53 | 335 | 5.0 | 14.0 | 0.00 | 0.06 | 0.05 | 73 | 1015.8 |
| 20260509135027 | 53 | 359 | 5.0 | 10.0 | 0.00 | 0.06 | 0.05 | 75 | 1015.8 |
| 20260509134550 | 53 | 344 | 5.0 | 9.0 | 0.00 | 0.06 | 0.05 | 75 | 1015.7 |
| 20260509134031 | 52 | 266 | 4.0 | 9.0 | 0.00 | 0.06 | 0.05 | 76 | 1015.7 |
| 20260509133526 | 51 | 326 | 3.0 | 6.0 | 0.00 | 0.06 | 0.05 | 79 | 1015.5 |
| 20260509133038 | 51 | 334 | 2.0 | 6.0 | 0.00 | 0.06 | 0.05 | 81 | 1015.5 |
| 20260509132526 | 50 | 305 | 1.0 | 4.0 | 0.00 | 0.06 | 0.05 | 86 | 1015.5 |
| 20260509132026 | 50 | 0 | 0.0 | 3.0 | 0.00 | 0.06 | 0.05 | 88 | 1015.6 |
| 20260509131555 | 49 | 0 | 0.0 | 2.0 | 0.00 | 0.06 | 0.05 | 88 | 1015.5 |
| 20260509131026 | 49 | 0 | 0.0 | 2.0 | 0.00 | 0.06 | 0.05 | 88 | 1015.5 |
| 20260509130531 | 49 | 246 | 0.0 | 2.0 | 0.00 | 0.06 | 0.05 | 89 | 1015.4 |
| 20260509130048 | 49 | 0 | 0.0 | 2.0 | 0.00 | 0.06 | 0.05 | 88 | 1015.4 |
| 20260509125527 | 49 | 246 | 0.0 | 2.0 | 0.00 | 0.07 | 0.05 | 88 | 1015.2 |
| 20260509125026 | 49 | 0 | 0.0 | 2.0 | 0.00 | 0.07 | 0.05 | 88 | 1015.1 |
| 20260509124543 | 49 | 0 | 0.0 | 2.0 | 0.00 | 0.07 | 0.05 | 88 | 1015.3 |
| 20260509124026 | 49 | 0 | 0.0 | 3.0 | 0.00 | 0.07 | 0.05 | 88 | 1015.2 |
| 20260509123526 | 49 | 0 | 0.0 | 3.0 | 0.00 | 0.07 | 0.05 | 88 | 1015.2 |
| 20260509123048 | 49 | 259 | 1.0 | 3.0 | 0.00 | 0.07 | 0.05 | 88 | 1015.1 |
| 20260509122526 | 48 | 244 | 1.0 | 3.0 | 0.00 | 0.07 | 0.05 | 89 | 1015.0 |
| 20260509122024 | 48 | 212 | 1.0 | 3.0 | 0.00 | 0.07 | 0.05 | 89 | 1015.0 |
| 20260509121538 | 48 | 233 | 1.0 | 3.0 | 0.00 | 0.07 | 0.05 | 89 | 1014.9 |
| 20260509121026 | 48 | 0 | 0.0 | 2.0 | 0.00 | 0.07 | 0.05 | 89 | 1014.9 |
| 20260509120528 | 48 | 0 | 0.0 | 3.0 | 0.00 | 0.07 | 0.05 | 88 | 1014.6 |
| 20260509120038 | 49 | 221 | 1.0 | 3.0 | 0.01 | 0.07 | 0.05 | 88 | 1014.6 |
| 20260509115526 | 49 | 221 | 1.0 | 3.0 | 0.01 | 0.07 | 0.05 | 88 | 1014.6 |
| 20260509115026 | 49 | 217 | 0.0 | 2.0 | 0.01 | 0.07 | 0.05 | 87 | 1014.5 |
| 20260509114537 | 49 | 0 | 0.0 | 1.0 | 0.01 | 0.07 | 0.05 | 87 | 1014.4 |
| 20260509114026 | 49 | 0 | 0.0 | 2.0 | 0.01 | 0.07 | 0.05 | 87 | 1014.4 |
| 20260509113531 | 49 | 0 | 0.0 | 2.0 | 0.02 | 0.07 | 0.05 | 87 | 1014.5 |
| 20260509113046 | 49 | 179 | 0.0 | 2.0 | 0.02 | 0.07 | 0.05 | 86 | 1014.4 |
| 20260509112528 | 50 | 179 | 1.0 | 2.0 | 0.03 | 0.07 | 0.05 | 86 | 1014.3 |
| 20260509112027 | 50 | 179 | 1.0 | 2.0 | 0.03 | 0.07 | 0.05 | 85 | 1014.3 |
| 20260509111539 | 50 | 179 | 1.0 | 3.0 | 0.04 | 0.07 | 0.05 | 84 | 1014.4 |
| 20260509111026 | 50 | 0 | 1.0 | 3.0 | 0.05 | 0.07 | 0.05 | 84 | 1014.5 |
| 20260509110528 | 50 | 186 | 1.0 | 4.0 | 0.05 | 0.07 | 0.05 | 84 | 1014.3 |
| 20260509110042 | 50 | 91 | 0.0 | 4.0 | 0.04 | 0.06 | 0.04 | 84 | 1014.4 |
| 20260509105525 | 50 | 103 | 3.0 | 4.0 | 0.04 | 0.06 | 0.04 | 84 | 1014.4 |
| 20260509105029 | 50 | 99 | 2.0 | 4.0 | 0.04 | 0.06 | 0.04 | 85 | 1014.5 |
| 20260509104548 | 50 | 0 | 0.0 | 4.0 | 0.04 | 0.06 | 0.04 | 83 | 1014.8 |
| 20260509104025 | 51 | 0 | 0.0 | 4.0 | 0.04 | 0.06 | 0.04 | 82 | 1014.8 |
| 20260509103526 | 51 | 88 | 2.0 | 4.0 | 0.03 | 0.05 | 0.03 | 81 | 1014.6 |
| 20260509103037 | 52 | 46 | 1.0 | 3.0 | 0.03 | 0.05 | 0.03 | 77 | 1014.8 |
| 20260509102530 | 52 | 0 | 0.0 | 4.0 | 0.02 | 0.04 | 0.02 | 78 | 1014.8 |
| 20260509102027 | 53 | 0 | 1.0 | 7.0 | 0.02 | 0.04 | 0.02 | 76 | 1014.5 |
| 20260509101537 | 53 | 98 | 2.0 | 7.0 | 0.01 | 0.03 | 0.01 | 71 | 1014.2 |
| 20260509101026 | 54 | 338 | 2.0 | 7.0 | 0.00 | 0.02 | 0.00 | 75 | 1014.6 |
| 20260509100526 | 54 | 296 | 3.0 | 6.0 | 0.00 | 0.02 | 0.00 | 70 | 1014.4 |
| 20260509100040 | 54 | 309 | 2.0 | 6.0 | 0.00 | 0.02 | 0.00 | 68 | 1014.2 |
| 20260509095527 | 54 | 263 | 3.0 | 6.0 | 0.00 | 0.02 | 0.00 | 69 | 1013.8 |
| 20260509095026 | 54 | 277 | 2.0 | 4.0 | 0.00 | 0.02 | 0.00 | 70 | 1013.5 |
| 20260509094538 | 54 | 0 | 1.0 | 5.0 | 0.00 | 0.02 | 0.00 | 73 | 1013.3 |
| 20260509094026 | 53 | 240 | 2.0 | 5.0 | 0.00 | 0.02 | 0.00 | 75 | 1013.1 |
| 20260509093526 | 53 | 0 | 1.0 | 4.0 | 0.00 | 0.02 | 0.00 | 78 | 1012.9 |
| 20260509093039 | 52 | 268 | 0.0 | 1.0 | 0.00 | 0.02 | 0.00 | 81 | 1012.8 |
| 20260509092526 | 52 | 0 | 0.0 | 2.0 | 0.00 | 0.02 | 0.00 | 81 | 1012.7 |
| 20260509092024 | 52 | 0 | 0.0 | 2.0 | 0.00 | 0.02 | 0.00 | 81 | 1012.6 |
| 20260509091537 | 52 | 131 | 0.0 | 2.0 | 0.00 | 0.02 | 0.00 | 81 | 1012.6 |
| 20260509091026 | 52 | 131 | 0.0 | 0.0 | 0.00 | 0.02 | 0.00 | 81 | 1012.7 |
| 20260509090526 | 52 | 0 | 0.0 | 1.0 | 0.00 | 0.02 | 0.00 | 82 | 1012.8 |
| 20260509090049 | 52 | 0 | 0.0 | 2.0 | 0.00 | 0.02 | 0.00 | 81 | 1012.7 |
| 20260509085526 | 53 | 131 | 0.0 | 3.0 | 0.00 | 0.02 | 0.00 | 80 | 1012.8 |
| 20260509085028 | 53 | 131 | 1.0 | 3.0 | 0.00 | 0.02 | 0.00 | 80 | 1012.7 |
| 20260509084541 | 53 | 246 | 1.0 | 2.0 | 0.00 | 0.02 | 0.00 | 80 | 1012.6 |
| 20260509084026 | 53 | 0 | 0.0 | 1.0 | 0.00 | 0.02 | 0.00 | 79 | 1012.7 |
| 20260509083526 | 53 | 0 | 0.0 | 3.0 | 0.00 | 0.02 | 0.00 | 79 | 1012.5 |
| 20260509083044 | 53 | 0 | 0.0 | 3.0 | 0.00 | 0.02 | 0.00 | 79 | 1012.4 |
| 20260509082525 | 53 | 0 | 1.0 | 5.0 | 0.00 | 0.02 | 0.00 | 78 | 1012.4 |
| 20260509082026 | 53 | 259 | 2.0 | 5.0 | 0.00 | 0.02 | 0.00 | 78 | 1012.5 |
| 20260509081543 | 53 | 225 | 2.0 | 5.0 | 0.00 | 0.02 | 0.00 | 78 | 1012.4 |
| 20260509081028 | 53 | 188 | 1.0 | 2.0 | 0.00 | 0.02 | 0.00 | 78 | 1012.5 |
| 20260509080526 | 53 | 184 | 0.0 | 3.0 | 0.00 | 0.02 | 0.00 | 78 | 1012.5 |
| 20260509080037 | 53 | 0 | 0.0 | 3.0 | 0.00 | 0.02 | 0.00 | 78 | 1012.3 |
| 20260509075526 | 53 | 185 | 2.0 | 4.0 | 0.00 | 0.02 | 0.00 | 76 | 1012.3 |
| 20260509075026 | 54 | 184 | 2.0 | 4.0 | 0.00 | 0.02 | 0.00 | 75 | 1012.3 |
| 20260509074536 | 54 | 160 | 1.0 | 3.0 | 0.00 | 0.02 | 0.00 | 75 | 1012.2 |
| 20260509074030 | 54 | 0 | 0.0 | 2.0 | 0.00 | 0.02 | 0.00 | 75 | 1012.4 |
| 20260509073526 | 54 | 278 | 0.0 | 2.0 | 0.00 | 0.02 | 0.00 | 76 | 1012.4 |
| 20260509073039 | 54 | 0 | 0.0 | 3.0 | 0.00 | 0.02 | 0.00 | 76 | 1012.3 |
| 20260509072537 | 54 | 0 | 0.0 | 3.0 | 0.00 | 0.02 | 0.00 | 75 | 1012.4 |
| 20260509072025 | 55 | 278 | 0.0 | 3.0 | 0.00 | 0.02 | 0.00 | 74 | 1011.7 |
| 20260509071540 | 55 | 0 | 0.0 | 3.0 | 0.00 | 0.02 | 0.00 | 72 | 1011.5 |
| 20260509071026 | 55 | 0 | 1.0 | 3.0 | 0.00 | 0.02 | 0.00 | 72 | 1011.5 |
| 20260509070527 | 56 | 0 | 0.0 | 2.0 | 0.00 | 0.02 | 0.00 | 71 | 1011.5 |
| 20260509070037 | 56 | 305 | 1.0 | 2.0 | 0.00 | 0.02 | 0.00 | 71 | 1011.6 |
| 20260509065526 | 56 | 306 | 0.0 | 1.0 | 0.00 | 0.03 | 0.00 | 70 | 1011.8 |
| 20260509065028 | 56 | 306 | 0.0 | 3.0 | 0.00 | 0.03 | 0.00 | 70 | 1011.8 |
| 20260509064537 | 57 | 0 | 0.0 | 3.0 | 0.00 | 0.03 | 0.00 | 69 | 1011.8 |
| 20260509064027 | 57 | 305 | 1.0 | 3.0 | 0.00 | 0.03 | 0.00 | 68 | 1011.8 |
| 20260509063526 | 57 | 58 | 1.0 | 3.0 | 0.00 | 0.03 | 0.00 | 67 | 1011.6 |
| 20260509063036 | 57 | 168 | 0.0 | 2.0 | 0.00 | 0.03 | 0.00 | 67 | 1011.5 |
| 20260509062529 | 57 | 0 | 0.0 | 2.0 | 0.00 | 0.03 | 0.00 | 67 | 1011.3 |
| 20260509062027 | 57 | 0 | 0.0 | 2.0 | 0.00 | 0.03 | 0.00 | 67 | 1011.4 |
| 20260509061542 | 57 | 0 | 0.0 | 3.0 | 0.00 | 0.03 | 0.00 | 66 | 1011.4 |
| 20260509061026 | 58 | 0 | 0.0 | 4.0 | 0.00 | 0.03 | 0.00 | 65 | 1011.4 |
| 20260509060529 | 58 | 67 | 0.0 | 4.0 | 0.00 | 0.03 | 0.00 | 65 | 1011.3 |
| 20260509060038 | 58 | 62 | 2.0 | 4.0 | 0.00 | 0.03 | 0.00 | 64 | 1011.4 |
| 20260509055527 | 59 | 269 | 1.0 | 4.0 | 0.00 | 0.03 | 0.03 | 62 | 1011.4 |
| 20260509055025 | 59 | 263 | 0.0 | 6.0 | 0.00 | 0.03 | 0.03 | 61 | 1011.3 |
| 20260509054548 | 60 | 245 | 2.0 | 6.0 | 0.00 | 0.03 | 0.03 | 59 | 1011.4 |
| 20260509054027 | 61 | 276 | 3.0 | 6.0 | 0.00 | 0.03 | 0.03 | 57 | 1011.3 |
| 20260509053530 | 62 | 226 | 2.0 | 5.0 | 0.00 | 0.03 | 0.03 | 50 | 1011.3 |
| 20260509053129 | 62 | 326 | 1.0 | 5.0 | 0.00 | 0.03 | 0.03 | 50 | 1011.4 |
| 20260509052526 | 63 | 348 | 2.0 | 10.0 | 0.00 | 0.03 | 0.03 | 45 | 1011.3 |
| 20260509052026 | 62 | 317 | 3.0 | 12.0 | 0.00 | 0.03 | 0.03 | 46 | 1011.3 |
| 20260509051545 | 61 | 27 | 6.0 | 12.0 | 0.00 | 0.03 | 0.03 | 48 | 1011.4 |
| 20260509051024 | 58 | 325 | 1.0 | 5.0 | 0.00 | 0.03 | 0.03 | 65 | 1011.5 |
| 20260509050526 | 58 | 277 | 2.0 | 5.0 | 0.00 | 0.03 | 0.03 | 64 | 1011.4 |
| 20260509050047 | 59 | 205 | 2.0 | 8.0 | 0.00 | 0.03 | 0.03 | 64 | 1011.2 |
| 20260509045526 | 59 | 236 | 3.0 | 8.0 | 0.00 | 0.03 | 0.03 | 62 | 1011.1 |
| 20260509045026 | 59 | 165 | 4.0 | 8.0 | 0.00 | 0.03 | 0.03 | 63 | 1011.0 |
| 20260509044539 | 59 | 163 | 4.0 | 8.0 | 0.00 | 0.03 | 0.03 | 62 | 1011.0 |
| 20260509044028 | 59 | 182 | 3.0 | 8.0 | 0.00 | 0.03 | 0.03 | 61 | 1011.1 |
| 20260509043526 | 59 | 175 | 2.0 | 6.0 | 0.00 | 0.03 | 0.03 | 62 | 1011.0 |
| 20260509043037 | 59 | 174 | 3.0 | 6.0 | 0.00 | 0.03 | 0.03 | 60 | 1011.0 |
| 20260509042529 | 60 | 203 | 2.0 | 7.0 | 0.00 | 0.03 | 0.03 | 59 | 1011.1 |
| 20260509042027 | 60 | 277 | 1.0 | 9.0 | 0.00 | 0.03 | 0.03 | 58 | 1011.1 |
| 20260509041536 | 60 | 159 | 4.0 | 9.0 | 0.00 | 0.03 | 0.03 | 57 | 1011.1 |
| 20260509041027 | 61 | 214 | 3.0 | 7.0 | 0.00 | 0.03 | 0.03 | 57 | 1011.1 |
| 20260509040526 | 61 | 0 | 0.0 | 7.0 | 0.00 | 0.03 | 0.03 | 55 | 1011.1 |
| 20260509040037 | 61 | 268 | 1.0 | 7.0 | 0.00 | 0.03 | 0.03 | 55 | 1011.1 |
| 20260509035527 | 61 | 257 | 4.0 | 7.0 | 0.00 | 0.04 | 0.03 | 55 | 1011.0 |
| 20260509035029 | 60 | 221 | 2.0 | 5.0 | 0.00 | 0.04 | 0.03 | 58 | 1010.9 |